Weather in Staryy Krivets

Russia / Bryansk Oblast     52°31′46″N   32°12′15″E
temp.,
°C
wind,
m/s
gust,
m/s
humid.,
%
clouds,
%
prec.,
mm/h
press.,
hPa
HPBL,
m
21 january, thu
thu2100:00−14s5129135 0.0 1023270
03:00−13s6129154 0.0 1021329
06:00−11s81493100 0.1 1019379
09:00−9s81594100 0.6 1017443
12:00−5ssw81492100 0.6 1017510
15:00−3ssw81394100 0.6 1015469
18:00−4ssw6139488 0.0 1015339
21:00−4ssw6119567 0.0 1015271
22 january, fri
fri2200:00−5ssw5119532 0.0 1015232
03:00−3ssw6109438 0.0 1015263
06:00−3s6109598 0.0 1013232
09:00−2s6109598 0.0 1012275
12:00−1s61193100 0.0 1012309
15:000ssw6119399 0.0 1011377
18:000s61193100 0.0 1010321
21:00+1s6139297 0.0 1010288
23 january, sat
sat2300:00−1s6119187 0.0 1010270
03:00−2s6119291 0.0 1010270
06:00−2s6119473 0.0 1010268
09:00−2s6139679 0.0 1011302
12:00+1s599998 0.0 1011371
15:00+1s5910099 0.0 1010325
18:000s589799 0.0 1010329
21:00+1s5109899 0.0 1010339
24 january, sun
sun2400:00+2sse51098100 0.0 1010303
03:00+2sse51198100 0.0 1009344
06:00+2sse51299100 0.0 1008313
09:00+3sse61499100 0.0 1008378
12:00+3sse71599100 0.0 1007475
15:00+3se81696100 0.4 1005558
18:00+4sse91990100 0.9 1004789
21:00+4sse102088100 1.0 1003759
25 january, mon
mon2500:00+5sse101890100 0.0 1003764
03:00+4sse8159498 0.1 1004526
06:00+3sse51196100 0.0 1005360
09:00+3sse51198100 0.6 1006316
12:00+3sse4998100 0.1 1007290
15:00+4se379699 0.1 1006279
18:00+3ese51097100 0.0 1005266
21:00+3ese71496100 0.4 1004386